When you browse on this site, cookies collect data to enhance your experience and personalize the content and advertising you see.
Visit our Privacy Policy to learn more. By continuing to use the site, you agree to this use of cookies and data.
  • In Slovakia
  • List of Countries
  • For 7 days
  • Water Temperature
  • Weather Map
  • Weather Widgets
  • user-avatar
    Login

    Hourly Weather Ondjiwa

    Today, 3 June, Wednesday

    Time Temperature Precipitation Wind Pressure Humidity
    00:00 +17°C° 0 mm 3 mps 669 mmHg 34%
    01:00 +16°C° 0 mm 3 mps 669 mmHg 35%
    02:00 +14°C° 0 mm 3 mps 669 mmHg 38%
    03:00 +14°C° 0 mm 3 mps 668 mmHg 41%
    04:00 +14°C° 0 mm 2 mps 668 mmHg 45%
    05:00 +14°C° 0 mm 2 mps 668 mmHg 45%
    06:00 +13°C° 0 mm 3 mps 669 mmHg 45%
    07:00 +13°C° 0 mm 3 mps 669 mmHg 46%
    08:00 +17°C° 0 mm 3 mps 670 mmHg 37%
    09:00 +21°C° 0 mm 4 mps 671 mmHg 29%
    10:00 +26°C° 0 mm 5 mps 671 mmHg 21%
    11:00 +27°C° 0 mm 4 mps 671 mmHg 20%
    12:00 +28°C° 0 mm 3 mps 670 mmHg 19%
    13:00 +30°C° 0 mm 2 mps 670 mmHg 18%
    14:00 +29°C° 0 mm 1 mps 669 mmHg 18%
    15:00 +29°C° 0 mm 1 mps 669 mmHg 18%
    16:00 +29°C° 0 mm 1 mps 669 mmHg 18%
    17:00 +27°C° 0 mm 1 mps 668 mmHg 21%
    18:00 +24°C° 0 mm 2 mps 668 mmHg 24%
    19:00 +20°C° 0 mm 2 mps 668 mmHg 28%
    20:00 +20°C° 0 mm 2 mps 668 mmHg 29%
    21:00 +19°C° 0 mm 2 mps 668 mmHg 31%
    22:00 +18°C° 0 mm 3 mps 668 mmHg 32%
    23:00 +17°C° 0 mm 2 mps 667 mmHg 32%

    Tomorrow, 4 June, Thursday

    Time Temperature Precipitation Wind Pressure Humidity
    00:00 +17°C° 0 mm 2 mps 667 mmHg 32%
    01:00 +16°C° 0 mm 2 mps 667 mmHg 33%
    02:00 +16°C° 0 mm 2 mps 667 mmHg 32%
    03:00 +16°C° 0 mm 2 mps 667 mmHg 32%
    04:00 +16°C° 0 mm 2 mps 668 mmHg 31%
    05:00 +16°C° 0 mm 2 mps 668 mmHg 32%
    06:00 +16°C° 0 mm 2 mps 668 mmHg 34%
    07:00 +16°C° 0 mm 1 mps 669 mmHg 35%
    08:00 +18°C° 0 mm 2 mps 669 mmHg 31%
    09:00 +21°C° 0 mm 2 mps 670 mmHg 28%
    10:00 +24°C° 0 mm 3 mps 671 mmHg 24%
    11:00 +26°C° 0 mm 2 mps 670 mmHg 22%
    12:00 +28°C° 0 mm 2 mps 670 mmHg 20%
    13:00 +30°C° 0 mm 2 mps 670 mmHg 18%
    14:00 +30°C° 0 mm 1 mps 669 mmHg 18%
    15:00 +30°C° 0 mm 1 mps 669 mmHg 18%
    16:00 +30°C° 0 mm 1 mps 668 mmHg 17%
    17:00 +27°C° 0 mm 1 mps 668 mmHg 21%
    18:00 +25°C° 0 mm 2 mps 668 mmHg 25%
    19:00 +21°C° 0 mm 3 mps 668 mmHg 29%
    20:00 +20°C° 0 mm 3 mps 668 mmHg 30%
    21:00 +19°C° 0 mm 3 mps 668 mmHg 32%
    22:00 +18°C° 0 mm 2 mps 668 mmHg 33%
    23:00 +17°C° 0 mm 2 mps 668 mmHg 35%

    Day after tomorrow, 5 June, Friday

    Time Temperature Precipitation Wind Pressure Humidity
    00:00 +17°C° 0 mm 2 mps 668 mmHg 36%
    01:00 +16°C° 0 mm 2 mps 668 mmHg 38%
    02:00 +15°C° 0 mm 2 mps 668 mmHg 39%
    03:00 +15°C° 0 mm 2 mps 668 mmHg 40%
    04:00 +14°C° 0 mm 1 mps 668 mmHg 42%
    05:00 +14°C° 0 mm 1 mps 669 mmHg 43%
    06:00 +14°C° 0 mm 1 mps 669 mmHg 44%
    07:00 +13°C° 0 mm 1 mps 669 mmHg 45%
    08:00 +17°C° 0 mm 2 mps 670 mmHg 38%
    09:00 +21°C° 0 mm 3 mps 671 mmHg 30%
    10:00 +26°C° 0 mm 4 mps 672 mmHg 23%
    11:00 +28°C° 0 mm 4 mps 672 mmHg 21%
    12:00 +29°C° 0 mm 3 mps 671 mmHg 20%
    13:00 +31°C° 0 mm 3 mps 671 mmHg 18%
    14:00 +31°C° 0 mm 3 mps 671 mmHg 17%
    15:00 +31°C° 0 mm 2 mps 670 mmHg 17%
    16:00 +31°C° 0 mm 1 mps 670 mmHg 17%
    17:00 +28°C° 0 mm 2 mps 669 mmHg 20%
    18:00 +25°C° 0 mm 2 mps 669 mmHg 23%
    19:00 +23°C° 0 mm 2 mps 669 mmHg 27%
    20:00 +21°C° 0 mm 2 mps 669 mmHg 29%
    21:00 +20°C° 0 mm 2 mps 669 mmHg 31%
    22:00 +19°C° 0 mm 3 mps 669 mmHg 33%
    23:00 +18°C° 0 mm 2 mps 669 mmHg 34%

    6 June, Saturday

    Time Temperature Precipitation Wind Pressure Humidity
    00:00 +17°C° 0 mm 2 mps 669 mmHg 36%
    01:00 +16°C° 0 mm 2 mps 669 mmHg 37%
    02:00 +16°C° 0 mm 2 mps 669 mmHg 39%
    03:00 +15°C° 0 mm 2 mps 669 mmHg 40%
    04:00 +14°C° 0 mm 2 mps 669 mmHg 41%
    05:00 +14°C° 0 mm 2 mps 669 mmHg 43%
    06:00 +14°C° 0 mm 2 mps 669 mmHg 44%
    07:00 +13°C° 0 mm 2 mps 670 mmHg 45%
    08:00 +17°C° 0 mm 3 mps 670 mmHg 37%
    09:00 +20°C° 0 mm 4 mps 671 mmHg 29%
    10:00 +25°C° 0 mm 5 mps 672 mmHg 21%
    11:00 +27°C° 0 mm 5 mps 672 mmHg 19%
    12:00 +29°C° 0 mm 4 mps 672 mmHg 17%
    13:00 +32°C° 0 mm 4 mps 671 mmHg 15%
    14:00 +32°C° 0 mm 4 mps 671 mmHg 16%
    15:00 +31°C° 0 mm 3 mps 670 mmHg 16%
    16:00 +31°C° 0 mm 3 mps 670 mmHg 16%
    17:00 +28°C° 0 mm 2 mps 670 mmHg 20%
    18:00 +25°C° 0 mm 2 mps 669 mmHg 23%
    19:00 +21°C° 0 mm 2 mps 669 mmHg 27%
    20:00 +20°C° 0 mm 2 mps 669 mmHg 29%
    21:00 +18°C° 0 mm 2 mps 669 mmHg 31%
    22:00 +17°C° 0 mm 2 mps 669 mmHg 33%
    23:00 +17°C° 0 mm 2 mps 669 mmHg 34%

    7 June, Sunday

    Time Temperature Precipitation Wind Pressure Humidity
    00:00 +16°C° 0 mm 3 mps 669 mmHg 35%
    01:00 +16°C° 0 mm 3 mps 669 mmHg 36%
    02:00 +14°C° 0 mm 3 mps 669 mmHg 36%
    03:00 +14°C° 0 mm 3 mps 669 mmHg 36%
    04:00 +14°C° 0 mm 3 mps 669 mmHg 36%
    05:00 +13°C° 0 mm 3 mps 669 mmHg 38%
    06:00 +13°C° 0 mm 3 mps 670 mmHg 40%
    07:00 +13°C° 0 mm 3 mps 670 mmHg 42%
    08:00 +17°C° 0 mm 4 mps 671 mmHg 36%
    09:00 +21°C° 0 mm 4 mps 672 mmHg 31%
    10:00 +25°C° 0 mm 5 mps 672 mmHg 25%
    11:00 +27°C° 0 mm 4 mps 672 mmHg 22%
    12:00 +28°C° 0 mm 4 mps 671 mmHg 19%
    13:00 +30°C° 0 mm 3 mps 671 mmHg 17%
    14:00 +30°C° 0 mm 3 mps 670 mmHg 16%
    15:00 +30°C° 0 mm 3 mps 670 mmHg 15%
    16:00 +30°C° 0 mm 2 mps 670 mmHg 15%
    17:00 +27°C° 0 mm 2 mps 669 mmHg 19%
    18:00 +23°C° 0 mm 2 mps 669 mmHg 23%
    19:00 +19°C° 0 mm 2 mps 669 mmHg 26%
    20:00 +18°C° 0 mm 2 mps 669 mmHg 29%
    21:00 +17°C° 0 mm 2 mps 669 mmHg 31%
    22:00 +16°C° 0 mm 2 mps 669 mmHg 34%
    23:00 +15°C° 0 mm 2 mps 669 mmHg 34%

    8 June, Monday

    Time Temperature Precipitation Wind Pressure Humidity
    00:00 +15°C° 0 mm 2 mps 668 mmHg 35%
    01:00 +13°C° 0 mm 3 mps 668 mmHg 36%
    02:00 +13°C° 0 mm 3 mps 668 mmHg 38%
    03:00 +12°C° 0 mm 3 mps 668 mmHg 39%
    04:00 +12°C° 0 mm 3 mps 668 mmHg 40%
    05:00 +11°C° 0 mm 3 mps 668 mmHg 43%
    06:00 +11°C° 0 mm 3 mps 668 mmHg 45%
    07:00 +11°C° 0 mm 3 mps 669 mmHg 48%
    08:00 +16°C° 0 mm 3 mps 670 mmHg 40%
    09:00 +19°C° 0 mm 4 mps 670 mmHg 33%
    10:00 +23°C° 0 mm 4 mps 671 mmHg 26%
    11:00 +26°C° 0 mm 4 mps 671 mmHg 23%
    12:00 +28°C° 0 mm 3 mps 670 mmHg 19%
    13:00 +29°C° 0 mm 3 mps 669 mmHg 16%
    14:00 +29°C° 0 mm 2 mps 669 mmHg 16%
    15:00 +29°C° 0 mm 2 mps 669 mmHg 15%
    16:00 +29°C° 0 mm 2 mps 668 mmHg 15%
    17:00 +26°C° 0 mm 2 mps 668 mmHg 19%
    18:00 +23°C° 0 mm 1 mps 668 mmHg 23%
    19:00 +20°C° 0 mm 1 mps 667 mmHg 27%
    20:00 +18°C° 0 mm 2 mps 667 mmHg 28%
    21:00 +17°C° 0 mm 2 mps 668 mmHg 30%
    22:00 +16°C° 0 mm 2 mps 668 mmHg 31%
    23:00 +16°C° 0 mm 2 mps 667 mmHg 33%
    Show more